TimeEST,TemperatureF,Dew PointF,Humidity,Sea Level PressureIn,VisibilityMPH,Wind Direction,Wind SpeedMPH,Gust SpeedMPH,PrecipitationIn,Events,Conditions,WindDirDegrees,DateUTC
12:51 AM,50.0,48.9,96,29.88,0.5,Calm,Calm,-,0.02,Rain,Light Rain,0,2012-12-08 05:51:00
1:51 AM,48.9,48.9,100,29.87,0.5,South,3.5,-,0.02,Rain,Light Rain,170,2012-12-08 06:51:00
2:23 AM,48.2,48.2,100,29.83,3.0,South,4.6,-,0.05,Rain,Light Rain,170,2012-12-08 07:23:00
2:51 AM,50.0,48.9,96,29.86,6.0,South,4.6,-,0.05,Rain,Light Rain,180,2012-12-08 07:51:00
3:36 AM,50.0,48.2,94,29.83,8.0,SSW,6.9,-,0.01,,Overcast,210,2012-12-08 08:36:00
3:51 AM,51.1,50.0,96,29.85,10.0,SSW,8.1,-,0.01,,Overcast,210,2012-12-08 08:51:00
4:51 AM,52.0,50.0,93,29.85,10.0,SSW,6.9,-,N/A,,Overcast,210,2012-12-08 09:51:00
5:20 AM,53.6,50.0,88,29.82,10.0,SSW,8.1,-,N/A,,Overcast,210,2012-12-08 10:20:00
5:51 AM,52.0,50.0,93,29.85,10.0,SW,6.9,-,N/A,,Overcast,220,2012-12-08 10:51:00
6:51 AM,53.1,48.9,86,29.87,10.0,SW,9.2,-,N/A,,Mostly Cloudy,230,2012-12-08 11:51:00
7:34 AM,51.8,48.2,88,29.84,10.0,SW,6.9,-,N/A,,Scattered Clouds,220,2012-12-08 12:34:00
7:51 AM,52.0,48.0,86,29.87,10.0,SW,6.9,-,N/A,,Scattered Clouds,220,2012-12-08 12:51:00
8:25 AM,51.8,48.2,88,29.85,10.0,SSW,6.9,-,N/A,,Mostly Cloudy,210,2012-12-08 13:25:00
8:51 AM,52.0,48.9,89,29.88,9.0,SW,5.8,-,N/A,,Mostly Cloudy,220,2012-12-08 13:51:00
9:51 AM,53.1,48.9,86,29.89,9.0,SW,6.9,-,N/A,,Overcast,220,2012-12-08 14:51:00
10:51 AM,54.0,48.9,83,29.90,10.0,WSW,9.2,-,N/A,,Overcast,240,2012-12-08 15:51:00
11:51 AM,54.0,50.0,86,29.88,10.0,SW,6.9,-,0.00,Rain,Light Rain,230,2012-12-08 16:51:00
12:51 PM,54.0,51.1,90,29.87,9.0,WSW,6.9,-,0.00,Rain,Light Rain,250,2012-12-08 17:51:00
1:21 PM,53.6,50.0,88,29.84,10.0,WSW,8.1,-,0.00,,Overcast,240,2012-12-08 18:21:00
1:51 PM,54.0,50.0,86,29.86,10.0,SSW,8.1,-,0.00,Rain,Light Rain,210,2012-12-08 18:51:00
2:07 PM,53.6,51.8,94,29.83,5.0,SSW,6.9,-,0.00,Rain,Light Rain,210,2012-12-08 19:07:00
2:51 PM,54.0,51.1,90,29.87,8.0,WSW,5.8,-,0.02,,Overcast,240,2012-12-08 19:51:00
3:11 PM,53.6,51.8,94,29.85,9.0,SW,8.1,-,N/A,,Overcast,230,2012-12-08 20:11:00
3:41 PM,53.6,51.8,94,29.87,7.0,WNW,6.9,-,0.00,,Overcast,300,2012-12-08 20:41:00
3:51 PM,53.1,51.1,93,29.90,9.0,WNW,9.2,-,0.00,,Overcast,290,2012-12-08 20:51:00
4:39 PM,53.6,48.2,82,29.89,10.0,WNW,9.2,-,N/A,,Overcast,290,2012-12-08 21:39:00
4:51 PM,52.0,48.9,89,29.93,10.0,WNW,8.1,-,N/A,,Overcast,290,2012-12-08 21:51:00
5:40 PM,51.8,46.4,82,29.93,10.0,WNW,10.4,-,N/A,,Overcast,300,2012-12-08 22:40:00
5:51 PM,52.0,46.9,83,29.96,10.0,NW,9.2,-,N/A,,Overcast,310,2012-12-08 22:51:00
6:51 PM,50.0,45.0,83,29.99,10.0,NW,6.9,-,N/A,,Overcast,310,2012-12-08 23:51:00
7:51 PM,48.2,44.6,87,29.99,10.0,NNW,10.4,-,N/A,,Overcast,330,2012-12-09 00:51:00
8:38 PM,48.2,42.8,82,30.02,10.0,NNW,11.5,-,N/A,,Overcast,340,2012-12-09 01:38:00
8:51 PM,46.9,42.1,83,30.06,10.0,NNW,15.0,-,N/A,,Overcast,340,2012-12-09 01:51:00
9:15 PM,46.4,42.8,87,30.04,10.0,North,12.7,-,N/A,,Overcast,350,2012-12-09 02:15:00
9:51 PM,44.1,39.9,85,30.09,10.0,North,13.8,-,N/A,,Overcast,350,2012-12-09 02:51:00
10:12 PM,44.6,39.2,81,30.06,10.0,North,15.0,-,N/A,,Overcast,350,2012-12-09 03:12:00
10:19 PM,44.6,39.2,81,30.05,10.0,North,12.7,-,N/A,,Overcast,350,2012-12-09 03:19:00
10:51 PM,43.0,37.9,82,30.09,10.0,North,11.5,-,N/A,,Overcast,360,2012-12-09 03:51:00